Location: Stillwell
(40.4602°N, 82.0928°W)
Time: 03:35:22
(UTC-04:00)

USA 245 - Pass Details

Date: 25 May 2018
Orbit: 264 x 1006 km, 97.9° (Epoch: 18 June)

Event Time Altitude Azimuth Distance (km) Brightness Sun altitude
Exits shadow 22:16:48 27° 124° (SE) 983 4.0 -14.4°
Maximum altitude 22:18:21 43° 70° (ENE) 753 3.8 -14.6°
Drops below altitude 10° 22:22:25 10° 359° (N) 2,005 6.9 -15.2°
Sets 22:24:59 0° 354° (N) 3,061 8.0 -15.5°
